[[{"header":{"parameterUnit":"m.s-1","parameterCategory":1,"la1":30.2991,"la2":30.254,"lo1":-89.0895,"lo2":-89.0444,"dy":0.0017,"dx":0.0017,"nx":28,"ny":28,"refTime":"2025-09-03T21:00:00:Z","depth":0,"parameterNumber":2,"parameterNumberName":"U-component_of_WINDS"},"data":[0,0,0,0,0,0,0,0,0,0,0,0,0,0,0,0,0,0,0,0,0,0,0,0,0,0,0,0,0,0,0,0,0,0,0,0,0,0,0,0,0,0,0,0,0,0,0,0,0,0,0,0,0,0,0,0,0,0,0.3635,0.3635,0,0.3608,0.3607,0.3607,0.3601,0.3601,0.3601,0.3601,0.3571,0.357,0.3569,0,0,0,0,0,0,0,0,0,0,0,0,0,0.3679,0.3679,0.3635,0.3635,0.3634,0.3608,0.3607,0.3607,0.3601,0.3601,0.3601,0.3602,0.3571,0.357,0.3569,0,0,0,0,0,0,0,0,0,0,0,0,0,0.3657,0.3678,0.3635,0.3628,0.3627,0.3608,0.3607,0.3607,0.3601,0.3601,0.3601,0.3602,0.3572,0.357,0.3569,0.3553,0,0,0.3564,0.3564,0,0,0,0,0,0,0,0,0.3658,0.3655,0.363,0.3629,0.3628,0.3608,0.3612,0.3589,0.3601,0.3611,0.3601,0.3602,0.3583,0.358,0.3575,0.3552,0.3551,0.3564,0.3563,0.3562,0.3562,0,0,0,0,0,0,0,0.366,0.3656,0.3624,0.3629,0.3628,0.3626,0.3623,0.3607,0.3595,0.361,0.3609,0.3606,0.3582,0.3576,0.3574,0.355,0.3564,0.3563,0.3562,0.3561,0.3513,0.3513,0,0,0,0,0,0,0.3663,0.3658,0.3625,0.3623,0.3644,0.3625,0.3621,0.3614,0.3596,0.3593,0.3606,0.3606,0.3578,0.3576,0.3573,0.3553,0.3562,0.3561,0.356,0.3513,0.3513,0.3512,0,0,0,0,0,0,0.3664,0.366,0.3626,0.364,0.3636,0.3623,0.3615,0.3613,0.3607,0.3593,0.359,0.3602,0.3579,0.3575,0.3558,0.3552,0.356,0.3559,0.3514,0.3513,0.3513,0.3515,0,0,0,0,0,0,0.3665,0.366,0.3655,0.364,0.3635,0.3613,0.3615,0.3613,0.3605,0.3604,0.3588,0.3586,0.3579,0.3561,0.3557,0.355,0.3558,0.3514,0.3513,0.3513,0.3515,0.3514,0.3513,0,0,0,0,0,0.3667,0.3656,0.3655,0.3651,0.3629,0.3613,0.361,0.3602,0.3604,0.3598,0.3589,0.3586,0.3553,0.3559,0.3555,0.3548,0.3515,0.3514,0.3513,0.3515,0.3514,0.3513,0,0,0,0,0,0,0.367,0.3654,0.3653,0.3637,0.3627,0.3612,0.3604,0.3601,0.3589,0.3589,0.358,0.3576,0.356,0.3552,0.3558,0.3531,0.3534,0.3532,0.3537,0.3536,0.3535,0.3538,0.3557,0,0,0,0,0,0.3669,0.3659,0.3645,0.3633,0.3628,0.3617,0.361,0.3605,0.3593,0.3588,0.3578,0.3565,0.3552,0.3544,0.3531,0.3514,0.351,0.3507,0.3506,0.3505,0.3504,0.3493,0.3492,0.351,0.351,0.351,0,0,0.3667,0.3657,0.3651,0.3633,0.3624,0.3613,0.3613,0.3601,0.3592,0.3586,0.357,0.3562,0.3547,0.353,0.3522,0.3523,0.3498,0.3504,0.3504,0.3503,0.3492,0.3491,0.3489,0.3509,0.3509,0.3509,0,0,0.3658,0.3649,0.3638,0.3629,0.3616,0.3608,0.3606,0.3591,0.3586,0.357,0.3565,0.3553,0.3531,0.3521,0.3513,0.3498,0.3495,0.3494,0.349,0.348,0.3479,0.3477,0.3472,0.347,0.3493,0.3493,0.3493,0,0.3656,0.364,0.3632,0.362,0.3612,0.3607,0.3595,0.3586,0.3569,0.3563,0.3565,0.3536,0.3526,0.3506,0.3503,0.3497,0.3493,0.3496,0.348,0.3478,0.3477,0.3472,0.347,0.3493,0.3493,0.3493,0.3493,0,0.3639,0.3627,0.3619,0.3604,0.3595,0.3583,0.3573,0.3564,0.356,0.3552,0.3535,0.3523,0.3507,0.3502,0.3498,0.3481,0.3482,0.3482,0.3484,0.3475,0.347,0.3468,0.3493,0.3493,0.3493,0.3493,0,0,0.3631,0.3611,0.3609,0.3601,0.3586,0.3576,0.3563,0.3548,0.3541,0.3529,0.3518,0.3499,0.3498,0.3489,0.3483,0.3474,0.3463,0.3474,0.3474,0.3472,0.3443,0.3444,0.3442,0.346,0.346,0.346,0.3445,0,0.3619,0.3598,0.359,0.3572,0.3561,0.3555,0.3544,0.3532,0.3525,0.3513,0.3504,0.3491,0.3491,0.3485,0.3476,0.3466,0.3457,0.3467,0.3449,0.3448,0.3453,0.3439,0.344,0.3426,0.3442,0.3442,0.3442,0,0.3603,0.3592,0.3572,0.3558,0.3553,0.3543,0.3528,0.3518,0.3504,0.3499,0.3488,0.3483,0.3468,0.3471,0.3451,0.3458,0.345,0.3443,0.3443,0.3441,0.3445,0.3437,0.3422,0.342,0.3439,0.3439,0.3439,0,0.3599,0.3579,0.3564,0.3558,0.3541,0.3534,0.3526,0.3513,0.3505,0.3492,0.3486,0.3471,0.3463,0.3451,0.3441,0.3444,0.3421,0.3423,0.3415,0.3416,0.3411,0.3411,0.3394,0.3406,0.3406,0.3406,0.3406,0,0.3587,0.3576,0.3562,0.3554,0.354,0.3531,0.3517,0.3509,0.3497,0.3486,0.348,0.3469,0.3457,0.3444,0.3436,0.342,0.3416,0.3411,0.3409,0.3412,0.3412,0.3406,0.3407,0.3405,0.3405,0.3405,0.3406,0,0.3581,0.3572,0.3556,0.3541,0.3536,0.3527,0.3513,0.3504,0.3496,0.3481,0.3478,0.3464,0.3449,0.3438,0.3418,0.3413,0.3395,0.3393,0.34,0.3399,0.3391,0.3392,0.337,0.3367,0.338,0.338,0.338,0,0.3574,0.3565,0.3549,0.3541,0.3534,0.3521,0.3513,0.3503,0.3494,0.3478,0.347,0.3454,0.3441,0.3417,0.3405,0.3389,0.3387,0.338,0.3384,0.3387,0.3386,0.3387,0.3386,0.338,0.3379,0.3379,0.3379,0,0.3562,0.3558,0.3546,0.3533,0.3523,0.3511,0.3499,0.3493,0.3481,0.3471,0.3456,0.3446,0.3426,0.341,0.3393,0.3384,0.3379,0.3378,0.3375,0.3378,0.3382,0.3379,0.3398,0.3379,0.3379,0.3379,0.3379,0.3379,0.3555,0.3547,0.3534,0.3521,0.3511,0.35,0.3491,0.3481,0.3469,0.3452,0.3447,0.343,0.3416,0.3393,0.3384,0.337,0.337,0.3366,0.3365,0.3365,0.3365,0.3384,0.3367,0.3367,0.3367,0.3367,0.3367,0,0.3543,0.3535,0.3523,0.3507,0.3496,0.3493,0.348,0.3471,0.3457,0.3445,0.3432,0.3414,0.3398,0.3385,0.3368,0.336,0.3357,0.3356,0.3356,0.3354,0.3366,0.3369,0.3358,0.3358,0.3358,0.3358,0.3358,0.3358,0.3536,0.3521,0.3515,0.3495,0.3486,0.3471,0.3464,0.3453,0.3443,0.3423,0.3411,0.3402,0.3389,0.3371,0.3356,0.3353,0.3347,0.3346,0.3342,0.3352,0.3353,0.3354,0.3358,0.3345,0.3345,0.3331,0.3331,0.3331]},{"header":{"parameterUnit":"m.s-1","parameterCategory":1,"la1":30.2991,"la2":30.254,"lo1":-89.0895,"lo2":-89.0444,"dy":0.0017,"dx":0.0017,"nx":28,"ny":28,"refTime":"2025-09-03T21:00:00:Z","depth":0,"parameterNumber":3,"parameterNumberName":"V-component_of_WINDS"},"data":[0,0,0,0,0,0,0,0,0,0,0,0,0,0,0,0,0,0,0,0,0,0,0,0,0,0,0,0,0,0,0,0,0,0,0,0,0,0,0,0,0,0,0,0,0,0,0,0,0,0,0,0,0,0,0,0,0,0,0.49,0.4899,0,0.4826,0.4825,0.4824,0.4808,0.4809,0.4809,0.481,0.4732,0.4729,0.4726,0,0,0,0,0,0,0,0,0,0,0,0,0,0.5026,0.5024,0.49,0.4899,0.4898,0.4826,0.4825,0.4824,0.4808,0.4809,0.4809,0.481,0.4732,0.4729,0.4726,0,0,0,0,0,0,0,0,0,0,0,0,0,0.4964,0.5023,0.49,0.4882,0.4879,0.4826,0.4825,0.4823,0.4808,0.4809,0.4809,0.481,0.4733,0.473,0.4726,0.4685,0,0,0.4714,0.4712,0,0,0,0,0,0,0,0,0.4967,0.4959,0.4885,0.4883,0.488,0.4827,0.4841,0.4777,0.4808,0.4835,0.481,0.4811,0.4762,0.4756,0.474,0.4681,0.4678,0.4714,0.4711,0.471,0.4708,0,0,0,0,0,0,0,0.4972,0.4962,0.4871,0.4884,0.4881,0.4876,0.4868,0.4828,0.4795,0.4833,0.4831,0.4823,0.4761,0.4744,0.4738,0.4677,0.4714,0.471,0.4708,0.4706,0.4579,0.4578,0,0,0,0,0,0,0.498,0.4966,0.4873,0.4868,0.4927,0.4873,0.4864,0.4843,0.4795,0.4789,0.4822,0.4822,0.475,0.4743,0.4736,0.4684,0.471,0.4706,0.4704,0.458,0.4579,0.4578,0,0,0,0,0,0,0.4982,0.4971,0.4876,0.4917,0.4904,0.487,0.4847,0.4841,0.4824,0.4787,0.4781,0.4811,0.4751,0.4741,0.4698,0.4681,0.4704,0.4701,0.4582,0.458,0.4579,0.4581,0,0,0,0,0,0,0.4986,0.4973,0.4957,0.4917,0.4902,0.484,0.4846,0.4839,0.4818,0.4817,0.4775,0.4769,0.4751,0.4703,0.4694,0.4676,0.4698,0.4583,0.4581,0.4579,0.4582,0.4579,0.4577,0,0,0,0,0,0.4991,0.4961,0.4957,0.4945,0.4882,0.4839,0.4831,0.481,0.4817,0.48,0.4777,0.477,0.4685,0.4699,0.4688,0.4669,0.4584,0.4581,0.4579,0.4583,0.458,0.4577,0,0,0,0,0,0,0.5,0.4955,0.495,0.4906,0.4877,0.4836,0.4816,0.4808,0.4776,0.4776,0.4752,0.4743,0.4701,0.468,0.4698,0.4626,0.4634,0.463,0.4641,0.4638,0.4635,0.4641,0.4694,0,0,0,0,0,0.4997,0.4966,0.4928,0.4893,0.4879,0.485,0.483,0.4817,0.4785,0.4772,0.4745,0.4714,0.468,0.4658,0.4624,0.4579,0.4569,0.456,0.4558,0.4556,0.4552,0.4525,0.4521,0.457,0.457,0.457,0,0,0.499,0.4962,0.4944,0.4894,0.487,0.4837,0.4839,0.4805,0.478,0.4767,0.4724,0.4703,0.4666,0.4622,0.4601,0.4603,0.4536,0.4553,0.4552,0.4549,0.4523,0.4518,0.4514,0.4569,0.4569,0.4569,0,0,0.4962,0.4938,0.4905,0.4881,0.4844,0.4824,0.4817,0.4777,0.4763,0.472,0.4709,0.4679,0.4621,0.4595,0.4574,0.4535,0.4527,0.4524,0.4512,0.4486,0.4482,0.4478,0.4463,0.4458,0.4521,0.4521,0.4521,0,0.4958,0.4909,0.4889,0.4855,0.4833,0.482,0.4787,0.4763,0.4717,0.4702,0.4706,0.4632,0.4607,0.4555,0.4546,0.453,0.4519,0.4529,0.4484,0.4481,0.4477,0.4462,0.4457,0.4521,0.4521,0.4521,0.4521,0,0.4906,0.4872,0.4851,0.4807,0.4782,0.4749,0.4723,0.47,0.4689,0.467,0.4625,0.4594,0.4553,0.454,0.4529,0.4487,0.4489,0.4489,0.4497,0.4472,0.4458,0.4452,0.452,0.452,0.452,0.452,0,0,0.4881,0.4826,0.4818,0.4798,0.4756,0.4729,0.4694,0.4655,0.4636,0.4604,0.4574,0.4525,0.4524,0.4501,0.4486,0.4464,0.4433,0.4466,0.4465,0.446,0.4383,0.4383,0.4377,0.4429,0.4428,0.4427,0.4386,0,0.4846,0.4785,0.4765,0.4713,0.4681,0.4668,0.4638,0.4608,0.4589,0.4558,0.4536,0.4501,0.4504,0.4489,0.4466,0.4442,0.4417,0.4445,0.4399,0.4398,0.4408,0.4369,0.4369,0.4332,0.438,0.4379,0.4378,0,0.4797,0.4765,0.471,0.4672,0.4657,0.4631,0.4593,0.4564,0.453,0.4517,0.449,0.4478,0.444,0.445,0.4397,0.4417,0.4397,0.4382,0.438,0.4374,0.4386,0.4361,0.432,0.4314,0.437,0.437,0.4371,0,0.4783,0.4726,0.4686,0.4669,0.4623,0.4604,0.4584,0.4551,0.4528,0.4495,0.4479,0.4442,0.4421,0.4392,0.437,0.4379,0.4318,0.4327,0.4305,0.4306,0.4293,0.4294,0.4246,0.4281,0.4282,0.4282,0.4282,0,0.4746,0.4713,0.4679,0.4654,0.4616,0.4593,0.4556,0.4535,0.4505,0.4475,0.4461,0.4433,0.4406,0.4374,0.4356,0.4314,0.4305,0.4293,0.4288,0.4293,0.4295,0.4279,0.4281,0.428,0.428,0.4281,0.4281,0,0.4724,0.47,0.4654,0.4615,0.4604,0.4577,0.4543,0.4517,0.4497,0.4459,0.4449,0.4417,0.4378,0.4353,0.4304,0.4292,0.4246,0.4243,0.4258,0.4255,0.4235,0.4237,0.4175,0.4165,0.4208,0.4208,0.4208,0,0.4701,0.4675,0.4632,0.4611,0.4591,0.4558,0.4535,0.4512,0.4488,0.4447,0.4426,0.4387,0.4354,0.4293,0.4265,0.4227,0.4222,0.4203,0.4216,0.4221,0.422,0.4221,0.4218,0.42,0.42,0.42,0.4199,0,0.4663,0.4652,0.462,0.4583,0.4556,0.4525,0.4495,0.4479,0.445,0.4424,0.4385,0.4359,0.4309,0.427,0.4229,0.4207,0.4198,0.4196,0.4188,0.4193,0.4202,0.4196,0.4251,0.4197,0.4197,0.4197,0.4197,0.4197,0.4639,0.4615,0.4581,0.4545,0.452,0.4491,0.4465,0.4442,0.4409,0.4366,0.4355,0.4313,0.4279,0.4223,0.4201,0.4167,0.4169,0.4159,0.4156,0.4154,0.4153,0.4208,0.416,0.416,0.416,0.416,0.416,0,0.4599,0.4577,0.4544,0.4502,0.4473,0.4468,0.4434,0.441,0.4374,0.4343,0.4311,0.4265,0.4227,0.4195,0.4156,0.4135,0.4129,0.4125,0.4126,0.4121,0.4154,0.4164,0.413,0.413,0.413,0.413,0.413,0.413,0.4575,0.4534,0.4519,0.4465,0.4442,0.4402,0.4383,0.4356,0.4331,0.4281,0.4249,0.4229,0.4197,0.4155,0.4119,0.4111,0.4096,0.4092,0.4083,0.4115,0.4118,0.4122,0.413,0.409,0.409,0.4052,0.4052,0.4051]}]]